Powrót do katalogu

STARLINK-37666

AktywnyŁącznośćSSO
NORAD 69046·PAYLOAD·🇺🇸 United States

Wystrzelony May 6, 2026 z Vandenberg Space Force Base

Loading…

Następne Przeloty (najbliższe 24 godziny)

TLE

ŚwieżeSource: CelesTrak SupGP

Epoka: Sep 14, 2026, 23:33 UTC

1 69046C 26101X   26257.98173611  .00091341  00000+0  28356-2 0  2573
2 69046  97.2848 111.6155 0001721  92.6708  54.4807 15.33391030    15

Śledź STARLINK-37666 w czasie rzeczywistym z AllMySat

Download on the App Store